User: anonymous   Login
Location: Unspecified
(0.0000°N, 0.0000°E)
Time: 11:15:00
(UTC+00:00)
Language:

EGRS 3 - Orbit

View from above orbital plane
View from above orbital plane
View from above satellite
View from above satellite

Ground track
Ground track

The orbit data is extracted from the following two-line orbital elements,

1 01208U 65016E   18203.47473242  .00000000  00000-0  38635-4 0  9995
2 01208  70.0774 208.9933 0022905 279.4880 233.9786 13.95562881716839
Epoch (UTC): 22 July 2018 11:23:36
Eccentricity: 0.0022905
inclination: 70.0774°
perigee height: 892 km
apogee height: 926 km
right ascension of ascending node: 208.9933°
argument of perigee: 279.4880°
revolutions per day: 13.95562881
mean anomaly at epoch: 233.9786°
orbit number at epoch: 71683

The dashed part of the orbit path shows where the satellite is in the earth's shadow,  

DLR